STARLINK-34318, 64222

Orbit data source: Space-Track

STARLINK-34318, 64222 is a payload satellite owned by SpaceX/Seattle (US) in LEO that was launched on Sat, 31 May 2025 UTC via an FALCON 9 launch vehicle from the Air Force Western Test Range (AFWTR). Payload-class satellites include a variety of spacecraft equipped with specific instruments for various scientific and technological missions. These include communications satellites like Starlink; space stations such as the ISS; scientific satellites like the Hubble; Earth observation satellites from companies like Planet Labs, Umbra, and HawkEye 360; GPS; miniature CubeSats for education and research; and military/defense satellites.

Loading next visibility...
Identifier
64222, 2025-117V
Orbit
LEO
Country
Flag of USUS
Related business
Manufacturer
SpaceX/Seattle
Mission
Operational Commercial Communications
Bus & Motor
STARLINK V2MO, Unknown motor
Mass
575 kg wet, ~530 kg dry
Launch date (UTC)
2025-05-31 (1 year ago)
Launch vehicle
FALCON 9
Launch site
Air Force Western Test Range (AFWTR)
Object type
Payload
Rocket body
Debris
Shape & HBR
Box + 1 Pan, 17.7 m
Radar Cross Section
41.120 m², Large (>1 m²)

Expand to show TLE details & history
Last TLE update: 17 hours ago

TLE from 17 hours ago
0 STARLINK-34318
1 64222U 25117V   26235.58479182  .00026492  00000-0  79237-3 0  9998
2 64222  53.1595 341.8718 0000424  65.5477 294.5570 15.34402456 70117
Epoch: 2026-08-23T14:02Z
TLE epoch observation values (Epoch: 2026-08-23T14:02:06.013Z)
Latitude
0.00001°
Longitude
159.46801°
Altitude
463.477 km
Speed
7.636 km/s
True Right ascension
22h 47m 29s
True Declination
0° 00' 00"
Sunlit
Object was in full shadow at epoch
Visualization orbit readout
Latitude
Unknown
Longitude
Unknown
Altitude
Unknown
Speed
Unknown
Apparent Right ascension
Unknown
Apparent Declination
Unknown
Sunlit
N/A
Visualization observer readout
Local Sidereal Time
21:43:51
Azimuth
Unknown
Elevation
Unknown
Doppler factor
Unknown
Orbital elements
Apogee altitude
463.243 km
Perigee altitude
462.663 km
Semi-major axis
6,841.09 km
Eccentricity
0.00004
Inclination
53.1595°
RAAN
341.8718°
Arg. of periapsis
65.5477°
True anomaly
294.55258°
Mean anomaly
294.557°
Eccentric anomaly
294.55479°
Mean motion
3.83579 °/min
Orbital period
93.85 mins
BSTAR
0.00079237
Loading maneuver chart data...
Computing Atmospheric mass density...
Loading historical data...
Loading historical data...
Loading historical data...
Loading historical data...
Loading historical data...
Loading historical data...
Loading historical data...

Documentation

Showing up to 5 results
|